Norfolk, VA

7:26 PM EDT on March 29, 2017 (GMT -0400)
Norfolk International

Weather History for KORF - April, 2014

Change the Weather History Date:

Sunday, April 13, 2014

  Actual Average Record
Temperature  
Mean Temperature 71 °F 58 °F  
Max Temperature 83 °F 67 °F 88 °F (1977)
Min Temperature 58 °F 48 °F 30 °F (1940)
Degree Days  
Heating Degree Days 0 9  
Month to date heating degree days 76 129  
Since 1 July heating degree days 3261 3190  
Cooling Degree Days 6 1  
Month to date cooling degree days 11 13  
Year to date cooling degree days 12 20  
Growing Degree Days 20 (Base 50)    
Moisture  
Dew Point 54 °F    
Average Humidity 58    
Maximum Humidity 86    
Minimum Humidity 30    
Precipitation  
Precipitation 0.00 in 0.11 in 2.68 in (1979)
Month to date precipitation 0.91 1.49  
Year to date precipitation 11.02 11.69  
Snow  
Snow 0.00 in 0.00 in 1.30 in (1940)
Month to date snowfall 0.0 0.0  
Since 1 July snowfall 15.5 5.8  
Snow Depth 0.00 in    
Sea Level Pressure  
Sea Level Pressure 30.16 in    
Wind  
Wind Speed 13 mph (SSW)    
Max Wind Speed 22 mph    
Max Gust Speed 29 mph    
Visibility 10 miles    
Events      
T = Trace of Precipitation, MM = Missing Value Source: NWS Daily Summary

Daily Weather History Graph

Daily Weather History Graph

Search for Another Location

Airport or City:

Trip Planner

Search our weather history database for the weather conditions in past years. The results will help you decide how hot, cold, wet, or windy it might be!

Date:

Astronomy

Apr. 13, 2014 Rise Set
Actual Time 6:33 AM EDT 7:37 PM EDT
Civil Twilight 6:06 AM EDT 8:04 PM EDT
Nautical Twilight 5:35 AM EDT 8:36 PM EDT
Astronomical Twilight 5:02 AM EDT 9:09 PM EDT
Moon 6:15 PM EDT (4/13) 5:28 AM EDT (4/13)
Length of Visible Light 13h 57m
Length of Day
13h 04m
Waxing Gibbous, 97% of the Moon is Illuminated
Apr 13
Waxing Gibbous
Apr 15
Full
Apr 22
Last Quarter
Apr 29
New
May 6
First Quarter

Hourly Weather History & Observations

Time (EDT) Temp. Dew Point Humidity Pressure Visibility Wind Dir Wind Speed Gust Speed Precip Events Conditions
12:51 AM 57.9 °F 54.0 °F 87% 30.18 in 10.0 mi South 6.9 mph - N/A   Clear
1:51 AM 59.0 °F 54.0 °F 83% 30.18 in 10.0 mi South 9.2 mph - N/A   Clear
2:51 AM 59.0 °F 53.1 °F 81% 30.17 in 10.0 mi South 9.2 mph - N/A   Clear
3:51 AM 59.0 °F 52.0 °F 78% 30.18 in 10.0 mi SSW 8.1 mph - N/A   Clear
4:51 AM 59.0 °F 52.0 °F 78% 30.18 in 10.0 mi SSW 10.4 mph - N/A   Clear
5:51 AM 59.0 °F 52.0 °F 78% 30.19 in 10.0 mi SSW 10.4 mph - N/A   Clear
6:51 AM 60.8 °F 53.6 °F 77% 30.21 in 10.0 mi SSW 9.2 mph - N/A   Clear
7:51 AM 63.0 °F 55.9 °F 78% 30.23 in 10.0 mi SW 10.4 mph - N/A   Clear
8:51 AM 68.0 °F 57.0 °F 68% 30.23 in 10.0 mi SSW 13.8 mph - N/A   Clear
9:51 AM 71.1 °F 57.9 °F 63% 30.22 in 10.0 mi SSW 16.1 mph - N/A   Clear
10:51 AM 75.0 °F 55.0 °F 50% 30.21 in 10.0 mi SW 17.3 mph - N/A   Clear
11:51 AM 77.0 °F 55.0 °F 47% 30.19 in 10.0 mi SW 10.4 mph - N/A   Clear
12:51 PM 79.0 °F 53.1 °F 40% 30.17 in 10.0 mi SSW 13.8 mph - N/A   Clear
1:51 PM 81.0 °F 51.1 °F 35% 30.14 in 10.0 mi SSW 15.0 mph - N/A   Clear
2:51 PM 81.0 °F 46.9 °F 30% 30.13 in 10.0 mi SSW 16.1 mph 25.3 mph N/A   Clear
3:51 PM 81.0 °F 51.1 °F 35% 30.11 in 10.0 mi SSW 18.4 mph 24.2 mph N/A   Clear
4:51 PM 80.6 °F 50.0 °F 34% 30.09 in 10.0 mi South 11.5 mph - N/A   Partly Cloudy
5:51 PM 78.1 °F 52.0 °F 40% 30.10 in 10.0 mi South 13.8 mph - N/A   Clear
6:51 PM 75.9 °F 57.0 °F 52% 30.09 in 10.0 mi South 11.5 mph - N/A   Partly Cloudy
7:51 PM 73.0 °F 57.9 °F 59% 30.10 in 10.0 mi South 13.8 mph - N/A   Clear
8:51 PM 70.0 °F 57.0 °F 63% 30.12 in 10.0 mi South 15.0 mph 21.9 mph N/A   Clear
9:51 PM 69.1 °F 57.0 °F 65% 30.12 in 10.0 mi South 17.3 mph 24.2 mph N/A   Clear
10:51 PM 68.0 °F 57.0 °F 68% 30.12 in 10.0 mi South 12.7 mph 21.9 mph N/A   Clear
11:51 PM 66.9 °F 57.0 °F 70% 30.12 in 10.0 mi South 12.7 mph 23.0 mph N/A   Clear